Location: Newark
(57.2833°N, 52.7500°E)
Time: 00:44:21
(UTC+00:00)

OTV 5 (USA 277) - Visible Passes

Search period start: 14 October 2019 00:00
Search period end: 24 October 2019 00:00
Orbit: 310 x 324 km, 54.5° (Epoch: 08 October)

Date Brightness Start Highest point End Pass type
(mag) Time Alt. Az. Time Alt. Az. Time Alt. Az.
14 Oct ? 00:37:08 33° SE 00:37:08 33° SE 00:38:57 10° ESE visible
14 Oct ? 02:08:02 11° W 02:10:17 25° SSW 02:12:38 10° SE visible
15 Oct ? 00:51:19 35° SSE 00:51:19 35° SSE 00:53:23 10° ESE visible
16 Oct ? 01:05:32 29° S 01:05:32 29° S 01:07:41 10° SE visible
17 Oct ? 01:19:50 21° SSW 01:19:50 21° SSW 01:21:45 10° SSE visible
18 Oct ? 01:34:13 13° SSW 01:34:13 13° SSW 01:35:18 10° S visible
